Brunswick, GA

8:17 AM EST on February 14, 2016 (GMT -0500)
Glynco Jetport

Weather History for KBQK - July, 2013

Change the Weather History Date:

Tuesday, July 2, 2013

  Actual Average (KSSI) Record (KSSI)
Temperature  
Mean Temperature 80 °F 82 °F  
Max Temperature 86 °F 90 °F 97 °F (1998)
Min Temperature 73 °F 75 °F 68 °F (1981)
Degree Days  
Heating Degree Days 0 0  
Month to date heating degree days 0  
Since 1 June heating degree days 0  
Since 1 July heating degree days 0  
Cooling Degree Days 14 17  
Month to date cooling degree days 34  
Year to date cooling degree days 935  
Since 1 June cooling degree days 493  
Growing Degree Days 30 (Base 50)    
Moisture  
Dew Point 73 °F    
Average Humidity 85    
Maximum Humidity 100    
Minimum Humidity 66    
Precipitation  
Precipitation 0.00 in 0.13 in 2.59 in (2009)
Month to date precipitation 0.26  
Year to date precipitation 20.02  
Snow  
Snow 0.00 in - 0.00 in ()
Month to date snowfall  
Since 1 June snowfall  
Since 1 July snowfall  
Snow Depth -    
Sea Level Pressure  
Sea Level Pressure 30.07 in    
Wind  
Wind Speed 5 mph (South)    
Max Wind Speed 18 mph    
Max Gust Speed 25 mph    
Visibility 10 miles    
Events Thunderstorm    
T = Trace of Precipitation, MM = Missing Value Source: NWS Daily Summary

Daily Weather History Graph

Daily Weather History Graph

Search for Another Location

Airport or City:

Trip Planner

Search our weather history database for the weather conditions in past years. The results will help you decide how hot, cold, wet, or windy it might be!

Date:

Astronomy

Jul. 02, 2013 Rise Set
Actual Time 6:25 AM EDT 8:34 PM EDT
Civil Twilight 5:57 AM EDT 9:01 PM EDT
Nautical Twilight 5:24 AM EDT 9:35 PM EDT
Astronomical Twilight 4:47 AM EDT 10:12 PM EDT
Moon 2:16 AM EDT (7/2) 3:55 PM EDT (7/2)
Length of Visible Light 15h 03m
Length of Day
14h 08m
Waning Crescent, 26% of the Moon is Illuminated
Jul 2
Waning Crescent
Jul 8
New
Jul 15
First Quarter
Jul 22
Full
Jul 29
Last Quarter

Hourly Weather History & Observations

Time (EDT) Temp. Heat Index Dew Point Humidity Pressure Visibility Wind Dir Wind Speed Gust Speed Precip Events Conditions
12:15 AM 73.4 °F - 71.6 °F 94% 30.03 in 10.0 mi South 6.9 mph - N/A   Overcast
12:35 AM 73.4 °F - 73.4 °F 100% 30.03 in 10.0 mi South 4.6 mph - N/A   Overcast
12:55 AM 75.2 °F - 73.4 °F 94% 30.02 in 10.0 mi SSE 3.5 mph - N/A   Overcast
1:15 AM 75.2 °F - 73.4 °F 94% 30.02 in 10.0 mi Calm Calm - N/A   Overcast
1:35 AM 75.2 °F - 73.4 °F 94% 30.02 in 10.0 mi South 5.8 mph - N/A   Overcast
1:55 AM 75.2 °F - 73.4 °F 94% 30.02 in 10.0 mi SSW 5.8 mph - N/A   Overcast
2:15 AM 75.2 °F - 73.4 °F 94% 30.02 in 10.0 mi SSW 5.8 mph - N/A   Overcast
2:35 AM 75.2 °F - 73.4 °F 94% 30.02 in 7.0 mi SSW 3.5 mph - N/A   Overcast
2:55 AM 73.4 °F - 73.4 °F 100% 30.01 in 10.0 mi SSW 4.6 mph - N/A   Overcast
3:15 AM 73.4 °F - 73.4 °F 100% 30.01 in 10.0 mi South 5.8 mph - N/A   Mostly Cloudy
3:35 AM 73.4 °F - 71.6 °F 94% 30.01 in 10.0 mi South 4.6 mph - N/A   Mostly Cloudy
3:55 AM 73.4 °F - 71.6 °F 94% 30.02 in 10.0 mi Calm Calm - N/A   Overcast
4:15 AM 73.4 °F - 71.6 °F 94% 30.02 in 10.0 mi Calm Calm - N/A   Overcast
4:35 AM 73.4 °F - 71.6 °F 94% 30.02 in 10.0 mi Calm Calm - N/A   Overcast
4:55 AM 73.4 °F - 71.6 °F 94% 30.02 in 10.0 mi Calm Calm - N/A   Mostly Cloudy
5:15 AM 73.4 °F - 71.6 °F 94% 30.02 in 10.0 mi Calm Calm - N/A   Mostly Cloudy
5:35 AM 73.4 °F - 71.6 °F 94% 30.02 in 10.0 mi Calm Calm - N/A   Overcast
5:55 AM 73.4 °F - 73.4 °F 100% 30.03 in 10.0 mi Calm Calm - N/A   Overcast
6:15 AM 75.2 °F - 73.4 °F 94% 30.04 in 10.0 mi SSE 3.5 mph - N/A   Overcast
6:35 AM 75.2 °F - 73.4 °F 94% 30.04 in 10.0 mi SE 3.5 mph - N/A   Overcast
6:55 AM 75.2 °F - 73.4 °F 94% 30.05 in 10.0 mi Calm Calm - N/A   Overcast
7:15 AM 75.2 °F - 73.4 °F 94% 30.05 in 10.0 mi Calm Calm - N/A   Overcast
7:35 AM 77.0 °F - 71.6 °F 83% 30.06 in 10.0 mi SSE 5.8 mph - N/A   Overcast
7:55 AM 77.0 °F - 71.6 °F 83% 30.06 in 10.0 mi SSE 10.4 mph - N/A Thunderstorm Overcast
8:15 AM 75.2 °F - 71.6 °F 89% 30.06 in 10.0 mi South 4.6 mph - N/A   Mostly Cloudy
8:35 AM 75.2 °F - 71.6 °F 89% 30.06 in 10.0 mi Calm Calm - N/A   Mostly Cloudy
8:55 AM 77.0 °F - 71.6 °F 83% 30.07 in 10.0 mi South 3.5 mph - N/A Thunderstorm Scattered Clouds
9:15 AM 77.0 °F - 71.6 °F 83% 30.08 in 10.0 mi SSE 6.9 mph - N/A   Mostly Cloudy
9:35 AM 77.0 °F - 73.4 °F 89% 30.07 in 10.0 mi Calm Calm - N/A   Overcast
10:15 AM 78.8 °F - 73.4 °F 83% 30.08 in 10.0 mi SE 5.8 mph - N/A   Mostly Cloudy
10:35 AM 78.8 °F - 73.4 °F 83% 30.08 in 10.0 mi SE 8.1 mph - N/A   Overcast
10:55 AM 77.0 °F - 73.4 °F 89% 30.08 in 10.0 mi SSE 4.6 mph - N/A Thunderstorm Overcast
11:15 AM 78.8 °F - 73.4 °F 83% 30.07 in 10.0 mi SSE 10.4 mph - N/A   Overcast
11:35 AM 78.8 °F - 73.4 °F 83% 30.07 in 10.0 mi SSE 8.1 mph - N/A   Overcast
11:55 AM 80.6 °F 85.4 °F 73.4 °F 79% 30.07 in 10.0 mi SSE 11.5 mph 19.6 mph N/A   Overcast
12:15 PM 82.4 °F 89.5 °F 75.2 °F 79% 30.07 in 10.0 mi South 11.5 mph 16.1 mph N/A   Overcast
12:35 PM 80.6 °F 85.4 °F 73.4 °F 79% 30.07 in 10.0 mi SSE 12.7 mph 17.3 mph N/A   Overcast
12:55 PM 80.6 °F 85.4 °F 73.4 °F 79% 30.07 in 10.0 mi SSE 8.1 mph 18.4 mph N/A   Mostly Cloudy
1:15 PM 82.4 °F 88.2 °F 73.4 °F 74% 30.06 in 10.0 mi South 9.2 mph - N/A   Overcast
1:35 PM 82.4 °F 88.2 °F 73.4 °F 74% 30.06 in 10.0 mi South 11.5 mph - N/A   Overcast
1:55 PM 84.2 °F 90.9 °F 73.4 °F 70% 30.06 in 10.0 mi SSW 12.7 mph 23.0 mph N/A   Mostly Cloudy
2:15 PM 86.0 °F 93.4 °F 73.4 °F 66% 30.06 in 10.0 mi SSE 12.7 mph 19.6 mph N/A   Scattered Clouds
2:35 PM 86.0 °F 93.4 °F 73.4 °F 66% 30.05 in 10.0 mi South 11.5 mph - N/A   Mostly Cloudy
2:55 PM 84.2 °F 90.9 °F 73.4 °F 70% 30.05 in 10.0 mi SSE 11.5 mph 16.1 mph N/A   Mostly Cloudy
3:15 PM 84.2 °F 92.3 °F 75.2 °F 74% 30.06 in 10.0 mi SE 10.4 mph - N/A   Mostly Cloudy
3:35 PM 84.2 °F 92.3 °F 75.2 °F 74% 30.06 in 10.0 mi SE 12.7 mph 17.3 mph N/A   Scattered Clouds
3:55 PM 82.4 °F 88.2 °F 73.4 °F 74% 30.06 in 10.0 mi SSE 15.0 mph 20.7 mph N/A   Clear
4:15 PM 82.4 °F 89.5 °F 75.2 °F 79% 30.06 in 10.0 mi SSE 10.4 mph 20.7 mph N/A   Scattered Clouds
4:35 PM 82.4 °F 89.5 °F 75.2 °F 79% 30.06 in 10.0 mi SSE 16.1 mph 24.2 mph N/A   Scattered Clouds
4:55 PM 82.4 °F 88.2 °F 73.4 °F 74% 30.06 in 10.0 mi SSE 18.4 mph 25.3 mph N/A Thunderstorm Scattered Clouds
5:15 PM 80.6 °F 85.4 °F 73.4 °F 79% 30.07 in 10.0 mi SSE 17.3 mph 21.9 mph N/A Thunderstorm Scattered Clouds
5:55 PM 78.8 °F - 71.6 °F 78% 30.08 in 10.0 mi South 12.7 mph 18.4 mph N/A   Scattered Clouds
6:35 PM 78.8 °F - 73.4 °F 83% 30.09 in 10.0 mi SSW 9.2 mph - N/A   Mostly Cloudy
6:55 PM 78.8 °F - 71.6 °F 78% 30.11 in 10.0 mi SSW 5.8 mph - N/A   Mostly Cloudy
7:15 PM 78.8 °F - 71.6 °F 78% 30.12 in 10.0 mi South 9.2 mph - N/A   Mostly Cloudy
7:35 PM 77.0 °F - 71.6 °F 83% 30.12 in 10.0 mi SSW 8.1 mph - N/A   Overcast
7:55 PM 77.0 °F - 71.6 °F 83% 30.13 in 10.0 mi South 4.6 mph - N/A   Mostly Cloudy
8:15 PM 77.0 °F - 71.6 °F 83% 30.13 in 10.0 mi South 4.6 mph - N/A   Scattered Clouds
8:35 PM 77.0 °F - 71.6 °F 83% 30.12 in 10.0 mi SSW 4.6 mph - N/A   Scattered Clouds
8:55 PM 77.0 °F - 71.6 °F 83% 30.12 in 10.0 mi South 5.8 mph - N/A   Scattered Clouds
9:15 PM 77.0 °F - 71.6 °F 83% 30.11 in 10.0 mi South 4.6 mph - N/A   Mostly Cloudy
9:35 PM 77.0 °F - 71.6 °F 83% 30.12 in 10.0 mi South 3.5 mph - N/A   Scattered Clouds
9:55 PM 77.0 °F - 71.6 °F 83% 30.12 in 10.0 mi SSE 4.6 mph - N/A   Scattered Clouds
10:15 PM 77.0 °F - 71.6 °F 83% 30.12 in 10.0 mi Calm Calm - N/A   Mostly Cloudy
10:35 PM 77.0 °F - 71.6 °F 83% 30.12 in 10.0 mi Calm Calm - N/A   Scattered Clouds
10:55 PM 77.0 °F - 71.6 °F 83% 30.13 in 10.0 mi SE 4.6 mph - N/A   Scattered Clouds
11:15 PM 75.2 °F - 71.6 °F 89% 30.14 in 10.0 mi ESE 3.5 mph - N/A   Clear
11:35 PM 77.0 °F - 71.6 °F 83% 30.14 in 10.0 mi Calm Calm - N/A   Clear
11:55 PM 77.0 °F - 71.6 °F 83% 30.13 in 10.0 mi Calm Calm - N/A   Clear